RH
44 43 40 40 41 44 45 45 46 46 46 46 45 46 48 48 49 48 48 48 47 48 48 45 45 44 43 41 41 40 40 41 39 39 38 34 33 34 35 37 37 36 37 37 39 41 42 42 41 40 39 39 41 42 41 47 53 49 46 45 44 47 49 47 47 47 46 47 49 50 49 48 49 49 47 51 49 43 46 48 41 38 42 42 37
46 45 43 42 42 43 44 44 46 46 46 46 46 47 48 49 50 50 50 50 49 50 51 49 48 47 46 45 44 43 44 44 42 41 41 37 35 35 34 33 32 32 34 34 35 37 38 38 38 37 37 36 39 41 39 45 52 55 58 52 45 49 54 51 48 47 47 47 48 51 50 49 50 49 47 48 47 43 46 50 48 45 46 43 38
50 48 45 45 45 45 45 44 46 47 45 45 47 48 49 51 52 52 52 52 52 53 53 53 52 51 51 50 48 47 48 47 45 43 42 40 39 38 38 38 39 39 39 38 38 39 39 39 37 36 37 39 40 41 41 43 47 51 55 52 47 49 53 53 53 49 47 49 51 52 51 52 52 48 46 46 42 39 40 44 46 44 41 42 42
56 53 47 47 48 50 54 49 45 45 45 45 46 46 48 51 53 54 54 55 55 55 55 55 55 54 54 54 53 52 51 51 49 47 46 44 43 42 40 41 42 42 43 44 44 44 44 42 41 39 40 41 41 40 41 42 42 44 45 43 45 47 47 51 54 51 48 50 52 51 49 53 55 51 50 49 44 41 39 37 37 37 35 38 45
55 53 50 51 50 52 56 53 51 53 48 45 46 47 48 50 51 53 55 56 56 56 55 56 57 58 57 56 55 55 55 54 52 51 49 47 47 47 46 44 43 43 44 45 45 46 46 45 46 48 47 43 41 42 45 47 46 46 46 46 50 52 51 55 58 54 50 47 48 48 47 50 52 50 51 50 43 40 39 35 34 35 34 37 43
51 51 51 53 52 51 51 52 57 61 57 53 52 49 48 49 50 53 55 55 56 56 55 55 57 59 60 59 57 57 57 56 54 53 51 50 50 52 51 50 49 48 47 46 47 47 47 47 49 53 54 52 50 51 51 50 49 49 52 55 55 54 55 59 60 57 50 45 46 49 50 53 53 50 51 52 44 36 34 33 34 35 35 36 41
51 51 52 54 54 52 52 50 51 55 61 66 64 57 52 51 51 54 57 56 54 55 55 55 56 58 59 61 61 60 60 58 58 56 53 52 52 54 54 54 53 52 50 50 50 49 49 50 49 51 55 57 57 57 53 48 46 48 54 59 57 54 55 56 57 57 54 53 52 50 50 54 55 54 55 56 50 39 31 29 32 36 37 36 38
53 53 54 56 56 55 55 51 46 47 55 65 68 65 60 57 54 55 59 58 53 52 54 53 55 58 59 60 61 62 61 60 59 59 58 56 56 55 55 54 54 54 54 53 52 51 51 52 53 53 54 55 56 56 53 50 50 50 55 61 59 55 55 54 55 55 54 56 54 48 47 50 53 56 58 58 55 46 37 35 37 39 38 36 35
55 54 55 57 58 59 57 52 49 49 49 52 60 63 61 61 61 61 66 64 54 51 53 53 54 56 57 60 62 62 62 62 60 60 61 60 59 59 58 56 56 56 56 55 54 53 52 52 55 55 54 54 55 53 52 54 55 54 56 61 58 54 53 52 52 50 49 52 52 48 48 50 52 56 57 58 57 52 49 49 45 40 39 40 40
61 59 57 56 57 60 58 53 51 51 48 49 54 57 56 56 59 66 73 72 61 55 55 54 53 54 54 55 58 59 60 61 61 62 64 64 62 60 58 57 58 59 61 60 56 55 55 55 57 58 56 56 56 53 51 52 54 53 50 48 46 46 48 49 49 48 48 50 50 48 49 51 53 56 58 60 61 60 60 57 49 43 43 44 43
69 68 68 67 65 65 64 61 57 55 52 50 51 54 56 53 52 56 63 68 65 60 59 56 52 53 54 53 54 57 58 59 59 61 64 66 64 60 55 55 57 59 63 62 58 58 61 62 63 62 59 59 58 57 56 54 54 52 46 43 44 46 48 49 50 51 51 50 49 49 52 53 54 58 61 61 61 62 63 61 55 51 46 42 41
76 76 77 77 76 75 75 73 70 66 63 60 56 56 57 57 55 53 55 60 61 60 64 65 56 50 51 51 54 56 57 62 67 67 63 63 66 65 56 50 53 58 62 61 60 62 64 66 68 66 61 61 62 61 61 59 58 57 54 53 53 52 52 54 56 57 56 55 54 54 55 54 55 59 62 61 60 62 64 64 63 59 52 46 45
79 79 79 80 80 81 81 81 80 78 76 72 68 64 61 60 59 57 57 59 58 57 64 71 68 60 53 54 59 60 58 63 70 70 65 61 64 67 61 53 55 59 60 57 58 60 61 62 65 63 59 60 61 60 61 61 62 63 61 58 56 55 55 55 57 59 59 60 59 57 57 58 59 61 63 63 62 64 67 70 71 69 65 61 59
81 81 81 82 81 80 80 80 80 80 81 79 77 74 71 68 66 63 61 60 59 58 61 67 70 68 63 62 66 65 65 69 71 70 69 65 61 62 62 59 58 58 57 56 56 57 57 57 57 55 54 56 56 55 55 57 61 64 64 59 56 57 58 56 55 56 57 58 59 58 58 60 61 63 64 65 63 63 67 71 70 69 70 71 71
80 81 81 82 82 80 79 79 78 79 80 80 79 77 76 76 76 72 67 65 63 63 64 63 62 62 63 66 68 64 65 73 76 71 69 68 62 56 54 56 56 55 53 53 54 54 55 55 55 53 52 52 52 52 52 55 59 62 64 63 60 61 63 61 57 55 55 55 56 58 60 61 62 63 65 67 66 62 63 66 65 66 70 70 71
76 77 78 79 79 78 78 79 80 79 80 81 81 79 77 79 82 81 77 73 70 67 67 65 62 61 61 63 68 69 67 72 77 72 67 67 64 55 50 51 54 53 50 48 49 50 51 54 55 54 50 48 50 53 57 61 63 63 65 65 62 62 65 65 60 57 57 56 55 56 56 57 59 62 64 67 67 62 60 62 66 71 72 69 69
72 73 74 75 75 75 77 79 79 79 81 82 82 81 80 79 80 83 83 81 78 74 72 70 68 67 62 59 65 68 63 64 71 69 65 67 69 65 60 60 61 60 54 48 46 49 54 56 54 50 46 45 50 57 63 66 66 65 66 65 61 62 66 66 61 57 56 57 58 59 58 56 56 57 59 61 62 62 61 62 68 74 74 71 71
68 70 71 72 72 73 75 77 79 79 81 82 83 84 85 84 83 84 86 86 85 82 79 76 74 73 68 65 66 64 58 59 64 64 62 67 71 71 67 63 62 64 66 63 58 58 64 65 58 53 50 49 52 59 65 67 66 65 67 67 65 66 68 65 61 59 57 57 59 62 64 65 64 61 59 58 57 59 60 62 66 71 72 72 72
67 69 70 72 73 74 76 77 78 80 82 85 88 88 87 87 87 86 89 92 92 89 86 83 81 78 75 73 72 67 60 59 61 61 62 64 65 68 68 65 64 67 73 78 77 73 71 68 62 59 59 59 59 61 62 61 60 61 65 66 66 71 74 70 66 65 63 61 61 62 64 68 72 72 70 67 64 64 66 68 69 69 68 69 72
68 69 71 73 74 77 80 80 79 82 86 90 94 94 93 94 94 92 93 96 96 94 92 90 88 84 80 79 79 75 69 66 64 64 65 64 64 65 69 75 78 77 75 77 81 79 74 71 71 71 69 68 67 64 62 59 56 55 59 60 60 67 73 74 73 74 72 68 66 66 68 71 73 74 75 76 74 73 77 79 79 78 75 73 75
70 71 73 74 75 78 82 83 84 87 90 91 92 92 92 93 95 94 92 93 94 93 93 93 92 89 85 84 84 82 79 76 73 72 71 69 69 70 70 74 81 85 83 79 80 81 77 76 79 80 75 71 70 68 65 65 63 60 58 58 59 63 68 70 72 76 76 74 72 73 77 78 76 76 78 80 79 78 79 80 80 81 83 82 81
71 71 72 74 77 82 84 84 86 89 89 89 91 92 91 91 94 93 91 92 95 93 92 94 94 91 89 89 88 87 85 83 80 80 78 76 75 77 77 75 77 82 86 84 80 79 78 79 81 80 76 73 74 75 72 70 68 66 62 61 65 68 68 68 71 74 77 78 78 80 83 82 81 82 84 84 84 83 84 84 82 81 83 87 89
67 68 70 71 76 81 81 81 83 87 88 89 90 91 92 94 96 97 96 95 96 95 94 94 94 92 91 91 90 89 88 86 85 85 84 83 83 84 84 82 80 81 84 84 80 78 80 82 82 82 83 81 79 79 78 75 72 70 68 68 70 71 70 70 73 75 77 77 78 81 85 87 86 88 89 88 88 90 90 90 87 83 83 88 92
63 67 69 70 72 74 75 77 78 78 80 81 81 81 84 86 90 93 94 93 94 94 95 94 93 93 94 94 92 91 90 90 90 89 88 86 86 88 89 88 86 84 85 86 83 81 83 84 82 83 89 91 86 83 82 80 78 77 76 75 74 74 75 76 77 78 79 79 77 79 84 88 89 90 91 90 90 91 92 89 87 86 85 86 90
58 60 62 65 67 68 69 71 72 72 73 74 75 77 79 80 81 83 86 89 91 93 94 94 92 93 94 95 93 91 90 91 92 92 92 90 89 91 93 93 91 88 87 86 85 84 84 83 82 84 87 89 88 86 83 81 80 79 79 79 79 79 80 80 81 80 81 81 80 80 81 86 89 90 91 91 90 89 89 87 88 89 88 88 91
57 58 59 62 65 65 65 66 67 68 69 69 69 71 73 73 74 75 77 82 87 90 92 93 92 91 91 92 92 91 90 91 92 92 92 92 92 93 93 92 91 89 87 86 86 84 82 80 82 84 84 86 87 87 85 84 82 81 82 83 84 84 83 82 81 81 80 81 81 80 81 84 87 88 88 90 90 88 88 89 90 90 89 90 92
57 56 57 59 62 63 64 66 66 65 64 64 63 64 64 65 68 70 73 78 82 83 84 84 85 85 86 88 90 90 89 91 92 92 91 90 90 90 90 89 88 87 87 87 84 79 76 78 80 82 83 85 86 85 85 84 84 84 85 86 86 86 84 81 79 78 77 77 77 75 74 76 79 84 89 92 93 91 90 91 93 92 91 93 95
59 57 57 58 60 60 62 64 65 65 65 65 64 64 63 63 65 67 71 76 79 80 81 80 79 80 80 82 84 85 85 86 86 86 86 86 85 84 85 86 84 83 83 81 76 71 73 77 79 79 80 82 82 82 81 83 84 85 86 87 87 85 82 79 77 76 75 73 71 69 68 68 72 78 86 90 91 90 89 89 90 90 90 92 94
59 58 58 59 60 61 61 60 59 61 64 65 66 68 68 68 67 67 69 71 71 73 76 78 76 74 72 72 73 74 74 76 77 76 76 76 74 74 75 76 75 75 75 73 72 73 76 77 77 76 76 76 76 75 73 74 75 76 77 79 80 79 77 75 74 73 71 69 67 65 66 67 69 75 82 85 85 85 86 86 86 85 85 88 94
56 55 57 58 59 60 60 58 55 56 57 58 59 62 63 65 65 65 66 67 67 66 68 69 67 66 64 64 64 64 64 66 66 67 67 66 66 66 66 67 67 69 71 74 77 79 79 77 76 76 74 72 71 70 68 68 68 67 67 67 66 66 65 65 64 63 63 63 64 64 65 66 68 73 81 87 88 87 86 85 83 82 82 85 90
56 56 57 57 58 60 60 57 53 51 51 51 52 53 54 54 55 56 57 59 61 61 61 62 61 62 62 61 61 61 61 61 61 61 62 62 62 61 61 62 64 67 71 77 81 81 79 78 77 76 73 70 69 68 68 69 68 67 67 66 65 64 62 60 59 58 56 57 59 62 64 66 67 70 75 80 81 81 80 78 77 76 77 79 83
53 54 54 53 54 56 56 54 51 47 46 46 47 49 51 49 49 49 49 49 50 51 51 51 53 53 54 54 54 54 55 55 56 56 57 58 59 59 60 62 66 70 74 76 76 75 74 72 70 69 68 66 65 64 63 64 64 64 64 64 64 63 62 61 61 60 59 58 57 57 59 59 61 63 66 70 72 74 75 75 74 74 76 78 80
44 45 45 45 45 45 46 46 46 45 43 43 44 47 49 48 45 44 45 45 46 47 47 48 49 49 49 50 49 48 47 47 47 48 49 49 50 53 56 60 64 69 71 72 71 70 68 66 65 64 62 61 61 60 59 58 58 57 57 58 58 56 55 55 55 56 57 58 57 57 57 56 56 56 58 62 66 70 73 74 74 75 76 76 76
31 32 33 35 35 36 36 37 37 38 38 39 41 42 43 42 41 40 41 43 42 41 42 44 46 47 48 49 49 49 49 49 48 48 49 49 50 51 54 57 59 61 63 65 67 68 68 67 67 67 66 65 64 63 62 60 59 57 56 55 55 52 50 50 50 50 50 51 52 53 53 53 53 53 53 55 58 63 67 70 71 73 76 78 77
24 24 25 26 28 29 29 29 30 30 30 31 33 33 33 34 35 36 37 40 40 38 37 36 37 39 41 42 44 46 46 48 49 50 51 54 57 59 61 65 66 64 63 65 67 67 68 68 68 68 67 66 66 65 65 64 63 62 60 59 58 55 53 51 50 49 48 48 47 47 48 48 48 48 49 50 52 54 58 63 65 68 70 71 71
21 20 21 22 22 23 23 25 25 24 23 24 25 26 25 26 26 26 26 28 30 32 31 28 25 28 31 32 34 36 37 39 41 43 45 50 56 61 65 68 69 69 68 68 69 69 69 69 69 68 67 67 66 65 65 65 64 63 62 61 60 58 57 55 54 52 51 50 49 48 47 47 46 46 47 48 49 49 50 54 57 58 59 59 58
20 20 21 22 22 22 22 24 23 20 19 21 23 23 22 23 23 22 22 23 23 24 25 23 21 23 25 23 23 26 28 29 31 32 33 37 44 50 53 54 56 57 58 59 60 61 61 62 62 62 61 61 61 60 59 59 59 58 58 57 56 56 55 56 55 55 55 55 55 54 53 52 51 51 50 50 51 50 50 51 52 52 52 52 52
22 22 22 20 20 22 23 24 23 21 21 21 22 21 21 22 21 21 23 25 24 24 24 22 21 23 25 23 20 21 23 25 26 29 31 32 36 39 41 42 43 44 45 46 47 47 48 49 51 52 52 52 52 52 51 51 51 51 51 50 50 50 51 52 51 51 52 53 53 53 53 52 52 52 51 51 51 51 52 54 54 53 52 52 52
23 24 23 20 20 23 24 23 23 23 22 21 20 20 21 21 21 21 23 26 28 28 28 26 23 22 24 23 21 22 27 30 30 29 31 33 35 36 37 38 39 39 39 40 40 40 40 41 41 42 43 43 44 44 44 44 44 43 43 42 43 43 45 46 46 47 47 48 49 49 49 49 50 50 50 50 50 50 51 51 51 51 51 51 51
22 24 25 24 23 24 24 24 24 23 22 22 24 28 30 30 27 25 25 28 31 32 32 32 31 31 31 30 25 25 32 37 36 31 29 30 32 34 35 35 37 38 38 38 38 38 38 38 37 38 38 38 38 39 39 39 39 38 38 37 37 37 37 37 38 39 39 40 40 41 41 42 43 43 44 45 45 44 45 45 45 45 45 44 44
23 24 24 24 24 23 22 23 23 23 23 24 27 32 34 33 32 33 34 35 37 36 33 34 37 39 40 40 35 30 31 35 37 36 34 33 32 32 33 33 34 35 36 36 37 39 39 38 38 37 37 37 37 38 37 37 37 37 36 35 34 34 34 33 33 34 35 35 35 34 35 36 36 36 37 39 40 40 41 41 41 40 40 40 40
25 25 24 24 24 23 22 23 23 23 23 23 24 26 27 28 32 37 40 41 41 39 37 38 41 43 43 45 44 39 35 36 39 40 41 39 36 34 34 35 36 37 37 37 38 40 41 41 41 41 41 42 42 42 41 40 39 38 37 35 34 34 35 35 34 34 35 35 35 35 35 35 36 36 36 38 38 39 39 39 39 39 38 38 37
25 25 24 24 23 23 22 23 23 23 23 23 23 24 25 27 28 31 33 33 34 34 36 39 42 44 44 46 48 46 44 45 46 45 44 43 41 38 38 39 38 39 41 42 42 43 44 44 44 43 42 41 41 42 43 44 43 42 41 39 38 37 37 38 37 37 38 39 39 39 39 38 37 37 38 38 38 38 38 37 37 37 36 36 36
26 26 24 23 24 24 24 25 25 25 25 25 24 23 23 24 24 24 25 26 28 29 30 33 38 41 42 43 46 47 47 49 52 52 51 49 47 45 44 42 39 38 40 41 41 42 41 40 39 38 36 34 33 35 37 39 41 43 42 42 41 40 40 41 41 40 40 41 41 41 41 40 39 39 39 40 41 41 40 39 39 39 39 39 39
27 27 24 24 24 24 24 25 26 26 26 25 24 23 23 23 22 22 22 23 24 25 26 29 34 40 42 44 47 48 50 53 57 58 57 57 55 53 50 48 45 45 44 41 39 39 38 36 36 37 36 33 34 35 36 37 39 40 41 41 43 43 43 43 43 42 42 43 45 45 45 44 43 42 43 43 42 42 41 41 42 42 42 42 42
28 26 25 25 25 25 25 26 26 25 25 24 23 22 22 21 21 21 21 21 22 24 27 30 34 40 44 47 50 52 55 59 61 62 63 64 62 58 54 50 50 50 46 41 40 41 41 40 42 43 43 42 42 43 42 41 40 40 41 42 44 44 42 41 42 42 42 44 46 47 47 47 45 43 43 42 41 40 40 40 42 43 43 42 41
28 26 26 25 25 24 24 24 24 24 23 23 22 21 20 20 21 22 22 23 23 24 26 29 34 38 43 47 50 52 54 57 60 62 62 59 56 54 52 52 53 51 46 42 43 47 48 48 49 48 49 50 49 49 48 46 45 44 44 44 44 41 37 38 41 43 42 43 46 47 47 47 46 45 43 42 43 43 43 43 43 43 43 42 42
27 27 26 25 25 25 24 23 23 22 22 21 21 20 20 20 21 21 22 23 25 26 28 31 34 38 42 46 48 50 53 57 61 64 61 54 51 54 55 54 54 53 49 46 49 54 56 57 56 56 57 57 55 54 53 52 50 49 49 49 48 45 42 42 45 45 44 47 51 51 49 49 50 49 47 46 47 47 47 46 46 46 45 44 43
27 27 26 25 25 25 24 24 24 22 22 22 22 21 20 21 22 22 24 28 31 33 35 37 38 39 42 45 45 46 48 51 55 57 56 53 54 56 54 50 49 50 50 51 56 59 59 59 61 61 61 60 58 55 53 51 49 49 50 51 51 48 45 44 45 45 46 49 52 51 49 48 48 47 46 45 45 43 42 42 42 42 42 41 41
28 27 27 27 26 25 25 25 24 24 24 24 25 26 27 27 28 30 32 35 37 37 36 38 39 39 38 39 41 42 44 46 48 50 51 51 52 52 50 47 47 47 49 54 59 58 56 57 60 61 57 55 54 52 49 48 48 48 49 50 49 45 42 41 42 41 41 44 46 46 45 45 44 43 43 43 43 42 40 40 39 39 39 39 39
28 27 26 27 26 25 24 24 25 25 25 27 28 29 32 35 38 40 40 41 41 39 38 39 41 41 39 39 41 43 44 46 48 50 50 49 49 48 45 43 42 42 44 49 53 53 52 54 55 53 49 48 49 51 52 53 53 52 51 53 52 48 45 44 42 40 40 43 46 47 46 46 46 45 44 43 43 41 40 39 38 37 38 38 38